www.pogodaiklimat.ru

Погода и климат >> Архив погоды >> Россия >> Мурманская область >> Кандалакша


АРХИВ ПОГОДЫ в Кандалакше

Время (UTC), дата Ветер
(напр.,м/с)
 
Видим.   Явления Облачность Т
(С)
Тd
(С)
f
(%)
Тe
(С)
Тes
(С)
Комфортность P
(гПа)
Po
(гПа)
Тmin
(С)
Tmax
(С)
R
(мм)
R24
(мм)
S
(см)
18 18.06 Ю 2 20 км 9/0
[Ac As Cc]
+14.4 +5.2 54 +14 +15 1007.2 1004.2 +19.2
21 18.06 Ю 2 20 км 10/0
[Ac lent Cs]
+14.5 +4.2 50 +14 +14 1006.2 1003.2
00 19.06 ЮВ 2 10 км гроза, ливневой дождь 10/6 300 м
[Cb cap Ac As]
+11.3 +10.1 92 +10 +10 1004.6 1001.6
03 19.06 ЮВ 3 10 км {ливн. осадки} 10/10 300 м
[Cb cap]
+11.7 +10.3 91 +10 +10 1003.3 1000.3 +11.0 6
06 19.06 Ю 2 10 км {ливн. осадки} 9/9 300 м
[Cb cap]
+12.4 +10.7 89 +11 +12 1002.8 999.8 +11.0 6
09 19.06 СВ 2 10 км осадки на расстоянии 9/9 300 м
[Cb cap]
+12.5 +8.9 79 +12 +13 1004.8 1001.8
12 19.06 СЗ 3 10 км осадки на расстоянии 9/8 300 м
[Cb cap Ac lent Cc]
+12.0 +7.0 71 +10 +12 1006.3 1003.3
15 19.06 С 3 20 км осадки на расстоянии 9/9 300 м
[Cb cap]
+12.5 +5.9 64 +11 +12 1007.7 1004.7 0.0
18 19.06 С 1 20 км 5/0
[Ac As Cc]
+11.7 +5.9 68 +12 +12 1009.0 1005.9 +14.5
21 19.06 штиль 0 20 км 9/6 600 м
[Sc Ac trans]
+9.6 +8.2 91 +9 +9 1010.0 1006.9
00 20.06 н/о н/о
03 20.06 С 2 20 км 1/1 300 м
[Cb cap]
+10.4 +5.4 71 +9 +11 1012.6 1009.5 +9.3
06 20.06 СЗ 2 20 км 5/4 600 м
[Sc Ac trans]
+12.8 +3.7 54 +12 +16 1013.2 1010.1 +9.3
09 20.06 СВ 2 20 км 9/8 600 м
[Sc Ac trans Cc]
+14.6 +4.5 51 +14 +16 1013.8 1010.7
12 20.06 СВ 1 20 км 9/8 600 м
[Cb cap Ac lent]
+16.5 +4.4 45 +17 +19 1013.4 1010.3
15 20.06 20 км 9/8 600 м
[Cb cap Ac trans Cs]
0.6
18 20.06 штиль 0 20 км {ливн. осадки} 9/8 300 м
[Cb cap Ac cuf Ci sp]
+15.1 +8.4 64 +15 +15 1013.0 1009.9 +17.6 0.6
21 20.06 Ю 1 20 км осадки на расстоянии 9/6 300 м
[Cb cap Ac cuf Ci sp]
+12.7 +7.6 71 +13 +13 1013.5 1010.4
00 21.06 СВ 1 20 км 9/5 300 м
[Cb cap Ac lent Cc]
+10.7 +8.0 83 +10 +10 1013.3 1010.2
03 21.06 С 1 20 км 9/8 600 м
[Sc Ac As]
+11.5 +7.4 76 +11 +12 1013.0 1009.9 +10.0 0.0
06 21.06 штиль 0 10 км слаб. дождь 10/4 300 м
[Frnb As op]
+11.8 +9.0 83 +11 +12 1012.3 1009.2 +10.0 0.5
09 21.06 н/о н/о
12 21.06 В 1 10 км слаб. дождь 10/10 200 м
[Frnb Ns]
+11.9 +10.7 92 +12 +12 1009.6 1006.5
15 21.06 Ю 1 10 км осадки на расстоянии 10/10 300 м
[Cb cap]
+11.7 +11.1 96 +11 +11 1008.4 1005.3 9
18 21.06 Ю 1 10 км слаб. морось {дождь} 10/10 300 м
[St]
1007.0 1004.0 8
21 21.06 штиль 0 1000 м слаб. морось 10/10 100 м
[St]
+11.0 +10.6 97 +10 +10 1006.4 1003.3
00 22.06 Ю 1 200 м слаб. морось {дождь} туман ?/? +10.8 +10.6 99 +10 +10 1006.0 1002.9
03 22.06 штиль 0 200 м туман {ливн. осадки} ?/? +10.4 +10.2 99 +10 +10 1005.7 1002.6 +10.2 2
06 22.06 Ю 2 200 м туман {дождь} ?/? +10.6 +10.6 100 +9 +9 1005.1 1002.0 +10.2 2
09 22.06 Ю 1 500 м туман ?/? +11.4 +11.4 100 +11 +11 1005.1 1002.1
12 22.06 ЮВ 1 500 м туман ?/? +11.7 +11.5 99 +11 +11 1004.0 1000.9 5
15 22.06 штиль 0 4000 м гроза, ливневой дождь 10/10 200 м
[Cb cap]
+12.6 +12.4 99 +12 +12 1002.8 999.8 5
18 22.06 штиль 0 10 км {гроза, ливн. осадки} 10/10 300 м
[Cb cap]
+11.8 +11.4 97 +11 +11 1001.7 998.7 +13.2 7
21 22.06 Ю 1 10 км {ливн. осадки} 10/8 300 м
[Cb cap Ac lent Cs]
+11.1 +10.9 99 +11 +11 1002.2 999.2
00 23.06 штиль 0 10 км {ливн. осадки} 9/4 600 м
[Sc Ac As Cs]
+10.3 +10.1 99 +9 +9 1001.0 997.9
03 23.06 штиль 0 10 км слаб. ливневой дождь 10/10 300 м
[Cb cap]
+11.2 +11.0 99 +10 +10 1001.1 998.1 +10.0 5
06 23.06 В 2 10 км слаб. ливневой дождь 10/10 300 м
[Cb cap]
+8.6 +8.0 96 +7 +7 1003.2 1000.1 +8.2 4
09 23.06 В 3 10 км слаб. ливневой дождь 10/8 300 м
[Cb cap Ac As]
+9.3 +8.1 92 +7 +7 1006.9 1003.8
12 23.06 С 3 20 км осадки на расстоянии {ливн. осадки} 10/8 300 м
[Cb cap Ac As]
+8.6 +5.3 80 +6 +7 1010.7 1007.6
15 23.06 С 3 20 км слаб. ливневой дождь 10/8 300 м
[Cb cap Ac As]
+7.7 +4.8 82 +5 +5 1013.7 1010.6 6
18 23.06 С 1 20 км {ливн. осадки} 9/9 600 м
[Cb cap]
+7.6 +3.9 77 +7 +7 1015.8 1012.7 +9.6 4
21 23.06 С 2 20 км 10/10 600 м
[Sc]
+6.0 +2.6 79 +4 +4 1017.7 1014.5
00 24.06 С 2 10 км 10/10 600 м
[Sc]
+5.7 +1.7 75 +3 +3 1019.3 1016.1
03 24.06 С 2 10 км 10/10 600 м
[Sc]
+5.8 +1.8 75 +4 +4 1020.6 1017.4 +5.7 0.1
06 24.06 С 2 10 км 4/3 600 м
[Sc Ac lent]
+9.6 +1.4 57 +8 +13 1021.3 1018.2 +5.7
09 24.06 С 3 20 км 3/3 600 м
[Cu Sc Cc]
+13.1 +1.2 44 +12 +19 1021.7 1018.6
12 24.06 С 2 20 км 8/6 600 м
[Cu Sc Ci fib]
+16.1 +2.9 41 +16 +20 1022.1 1019.0
15 24.06 СЗ 1 20 км осадки на расстоянии 9/8 600 м
[Cb cap Ac As]
+16.8 +3.7 42 +18 +19 1022.1 1019.1
18 24.06 штиль 0 20 км слаб. ливневой дождь 9/8 600 м
[Cb cap Ac lent Cc]
+13.7 +6.7 63 +13 +14 1022.3 1019.2 +17.7 0.0
21 24.06 штиль 0 20 км осадки на расстоянии 9/6 300 м
[Cb cap Ac cuf Cc]
+10.8 +8.8 87 +10 +10 1023.0 1019.9
00 25.06 СВ 2 20 км 8/4 600 м
[Sc Ac lent Cc]
+7.8 +7.2 96 +6 +6 1023.1 1020.0
03 25.06 штиль 0 20 км 9/4 300 м
[Cb cap As trans Cs]
+10.2 +8.6 90 +9 +10 1022.7 1019.6 +7.5 0.0
06 25.06 Ю 2 20 км 9/1 300 м
[Cb cap Ac lent Ci sp]
+14.1 +8.3 68 +14 +17 1021.9 1018.8 +7.5
09 25.06 С 3 10 км слаб. ливневой дождь, в посл. час гроза 10/10 300 м
[Cb cap]
+9.3 +7.8 90 +7 +7 1020.9 1017.8
12 25.06 Ю 2 20 км {гроза, ливн. осадки} 4/1 300 м
[Cb cap Ac As Cs]
+16.2 +8.4 60 +16 +24 1020.8 1017.7
15 25.06 ЮЗ 2 20 км 8/1 600 м
[Cu med, cong Ac cast Ci fib]
+16.3 +6.8 53 +16 +19 1020.3 1017.2 3

 

Местоположение метеостанции Кандалакша (Мурманская область, Россия): широта 67.15 долгота 32.35 высота над уровнем моря 25 м.

В архиве по умолчанию представлена погода в Кандалакше за последнюю неделю. Архивные данные за месяц целиком и за предыдущие месяцы, начиная с января 2011 года, Вы можете получить, выбрав интересующий диапазон дат из раскрывающегося списка и нажав кнопку "Ввод!".


*Определитесь, кто Вы:
робот инопланетянин человек

Внимание! Время в таблицах - всемирное. Для получения местного времени необходимо прибавить поправку, которая равна 3 ч.

Смотрите также архив погоды в соседних городах и на ближайших метеорологических станциях:

Погода в Порту Кандалакша (Мурманская область, Россия) (4 км)
Погода в Порту Витино (Мурманская область, Россия) (8 км)
Погода в Зашейке (Мурманская область, Россия) (29 км)
Погода в Ковде (Мурманская область, Россия) (55 км)
Погода в Апатитах (Мурманская область, Россия) (62 км)
Погода в Зареченске (Мурманская область, Россия) (66 км)
Погода в Кировске (Мурманская область, Россия) (77 км)
Погода в Алакуртти (Мурманская область, Россия) (89 км)
Погода в Мончегорске (Мурманская область, Россия) (90 км)
Погода в Ковдоре (Мурманская область, Россия) (94 км)

Пояснения к столбцам:

Ветер - указаны скорость ветра в м/с - средняя за 10 мин, порывы в срок и между сроками (в фигурных скобках) и направление, откуда дует ветер: С - северный, СВ - северо-восточный, В - восточный, ЮВ - юго-восточный, Ю - южный, ЮЗ - юго-западный, З - западный, СЗ - северо-западный.
Видимость - горизонтальная дальность видимости в метрах или километрах. При видимости от 1 до 10 км при отсутствии осадков обычно наблюдается дымка, при ухудшении видимости до 1 км и менее - туман. В сухую погоду видимость может ухудшаться дымом, пылью или мглою.
Явления - указаны атмосферные явления, наблюдавшиеся в срок или в последний час перед сроком; фигурными скобками обозначены явления, наблюдавшиеся между сроками (за 1-3 часа до срока); квадратными скобками обозначены град или гололедные отложения с указанием их диаметра в мм.
Облачность - указаны через наклонную черту общая и нижняя облачность в баллах и высота нижней границы облаков в метрах; квадратными скобками обозначены формы облаков: Ci - перистые, Cs - перисто-слоистые, Cc - перисто-кучевые, Ac - высококучевые, As - высокослоистые, Sc - слоисто-кучевые, Ns - слоисто-дождевые, Cu - кучевые, Cb - кучево-дождевые. Подробнее классификацию облаков см. в Атласе облаков (PDF).
T - Температура воздуха - температура, измеренная на высоте 2 м над землей.
Td - Температура точки росы - температура, при понижении до которой содержащийся в воздухе водяной пар достигнет насыщения.
f - Относительная влажность воздуха - влажноcть воздуха, измеренная на высоте 2 м над землей.
Te - Эффективная температура - температура, которую ощущает одетый по сезону человек в тени. Характеристика душности погоды. При расчете учитывается влияние влажности воздуха и скорости ветра на теплоощущения человека.
Tes - Эффективная температура на солнце - температура, которую ощущает человек, с поправкой на солнечный нагрев. Характеристика знойности погоды. Зависит от высоты солнца над горизонтом, облачности и скорости ветра. Ночью, в пасмурную погоду, а также при ветре 12 м/с и более поправка равна нулю.
P - Атмосферное давление - приведенное к уровню моря атмосферное давление.
Po - Атмосферное давление - измеренное на уровне метеостанции атмосферное давление.
Tmin - Минимальная температура - минимум температуры воздуха на высоте 2 м над землей.
Tmax - Максимальная температура - максимум температуры воздуха на высоте 2 м над землей.
R - Количество осадков - Количество выпавших осадков за период времени, мм. При наведении курсора мыши на число - период времени, за который выпало указанное количество осадков.
R24 - Количество осадков - Количество выпавших осадков за 24 часа, мм.
S - Снежный покров - Высота снежного покрова, см. При наведении курсора мыши на число - состояние снежного покрова и степень покрытия местности в баллах.